Miscellaneous Local Product
Issued by NWS Hastings, NE

Home | Current Version | Previous Version | Graphics & Text | Print | Product List | Glossary On
Versions: 1 2 3 4 5 6 7 8 9 10 11 12 13 14 15 16 17 18 19 20 21 22 23 24 25 26 27 28 29 30 31 32 33 34 35 36 37 38 39 40 41 42 43 44 45 46 47 48 49 50
000
AXUS43 KGID 281802
MISGRI

GID CWA HOURLY WEATHER ROUNDUP
NATIONAL WEATHER SERVICE HASTINGS NE
100 PM CDT MON JUL 28 2014

NOTE: "FAIR" INDICATES FEW OR NO CLOUDS BELOW 12,000 FEET WITH NO
SIGNIFICANT WEATHER AND/OR OBSTRUCTIONS TO VISIBILITY.

...SOUTH CENTRAL NEBRASKA...

CITY           SKY/WX    TMP DP  RH WIND       PRES   REMARKS
GRAND ISLAND   MOSUNNY   75  55  49 NE7       30.32F
HASTINGS       PTSUNNY   74  55  51 N7        30.32F
KEARNEY        MOSUNNY   75  55  50 NE3       30.32F
ORD            MOSUNNY   72  54  53 NE5       30.31F
YORK           MOSUNNY   72  55  56 N10G16    30.31F
AURORA         MOSUNNY   73  56  55 N7        30.31F
LEXINGTON      SUNNY     76  58  52 E5        30.32F
HOLDREGE       SUNNY     74  57  55 NE3       30.32F
HEBRON         PTSUNNY   75  55  50 N8        30.30F

...NEBRASKA PANHANDLE...

CITY           SKY/WX    TMP DP  RH WIND       PRES   REMARKS
CHADRON        SUNNY     81  52  36 SE10      30.29F
ALLIANCE       SUNNY     79  53  40 SE8G22    30.32F
SCOTTSBLUFF    SUNNY     79  58  48 E10       30.32F
SIDNEY         SUNNY     83  54  36 MISG      30.34F

...WESTERN AND NORTH CENTRAL NEBRASKA...

CITY           SKY/WX    TMP DP  RH WIND       PRES   REMARKS
VALENTINE      MOSUNNY   76  52  43 NE7       30.32F
AINSWORTH      MOSUNNY   72  53  52 CALM      30.33F
ONEILL         MOSUNNY   73  49  43 N3        30.33S
BROKEN BOW     MOSUNNY   76  55  48 CALM      30.32F
IMPERIAL       SUNNY     82  56  40 SE16      30.31F
NORTH PLATTE   SUNNY     79  53  40 E7        30.32F
MCCOOK         MOSUNNY   81  58  45 SE12G17   30.30F

...EASTERN NEBRASKA...

CITY           SKY/WX    TMP DP  RH WIND       PRES   REMARKS
NORFOLK        MOSUNNY   73  52  47 N8G18     30.29F
SO SIOUX CITY  PTSUNNY   74  57  55 NW9       30.25F
TEKAMAH        PTSUNNY   73  57  57 NW10      30.26S
ALBION         MOSUNNY   69  53  55 N6        30.31F
OMAHA EPPLEY   PTSUNNY   73  56  54 N9        30.26F
OFFUTT AFB     MOSUNNY   73  58  60 NW7       30.25F
MILLARD        MOSUNNY   73  56  54 N7        30.26S
LINCOLN        MOSUNNY   79  53  40 N15G21    30.29F
NEBRASKA CITY  CLOUDY    71  56  58 N6        30.27S
BEATRICE       SUNNY     74  56  52 N13G18    30.28F
FALLS CITY     CLOUDY    73  59  61 NW7       30.25S

...NORTHERN KANSAS...

CITY           SKY/WX    TMP DP  RH WIND       PRES   REMARKS
GOODLAND         N/A     80  55  42 S14       30.33F
HILL CITY      SUNNY     82  58  43 SE12      30.30F
NORTON         PTCLDY    81  50  34 S8        30.30F
PHILLIPSBURG   SUNNY     79  55  44 S5        30.31F
SMITH CENTER   SUNNY     79  55  44 NW5       30.30F
HAYS           SUNNY     79  57  47 S5        30.30F
RUSSELL        SUNNY     79  58  48 MISG      30.29F
CONCORDIA      SUNNY     78  58  49 NW8       30.29F
SALINA         SUNNY     83  55  38 NW8       30.28F
TOPEKA         MOSUNNY   81  58  45 NW10      30.25F



USA.gov is the U.S. government's official web portal to all federal, state and local government web resources and services.